{"data":{"norad_id":69087,"epoch":"2026-09-20T05:10:14.403072Z","epoch_age_seconds":61872,"freshness":"FRESH","line1":"1 69087U 26104Q   26263.21544448  .00000070  00000+0  89654-4 0  9996","line2":"2 69087  88.9897 331.7440 0002342 112.1598 247.9802 13.51020724 18007","mean_motion":13.51020724,"eccentricity":0.0002342,"inclination_deg":88.9897,"raan_deg":331.744,"arg_perigee_deg":112.1598,"mean_anomaly_deg":247.9802,"bstar":8.9654e-5,"rev_number":1800,"period_min":106.58607780172,"perigee_km":1066.7614287016,"apogee_km":1070.249436017,"semimajor_km":7446.6424323593,"source":"CELESTRAK","updated_at":"2026-09-20T09:00:24.673650Z"}}